[[{"header":{"parameterUnit":"m.s-1","parameterCategory":1,"la1":30.2991,"la2":30.254,"lo1":-89.0895,"lo2":-89.0444,"dy":0.0017,"dx":0.0017,"nx":28,"ny":28,"refTime":"2025-11-24T03:00:00:Z","depth":0,"parameterNumber":2,"parameterNumberName":"U-component_of_WINDS"},"data":[0,0,0,0,0,0,0,0,0,0,0,0,0,0,0,0,0,0,0,0,0,0,0,0,0,0,0,0,0,0,0,0,0,0,0,0,0,0,0,0,0,0,0,0,0,0,0,0,0,0,0,0,0,0,0,0,0,0,-1.4379,-1.438,0,-1.4441,-1.4442,-1.4443,-1.4463,-1.4463,-1.4463,-1.4463,-1.4523,-1.4525,-1.4527,0,0,0,0,0,0,0,0,0,0,0,0,0,-1.4276,-1.4277,-1.4379,-1.438,-1.4381,-1.4441,-1.4442,-1.4443,-1.4464,-1.4463,-1.4463,-1.4463,-1.4523,-1.4525,-1.4527,0,0,0,0,0,0,0,0,0,0,0,0,0,-1.4327,-1.4278,-1.4379,-1.4399,-1.4401,-1.4441,-1.4442,-1.4443,-1.4464,-1.4463,-1.4463,-1.4462,-1.4522,-1.4525,-1.4527,-1.4552,0,0,-1.4536,-1.4537,0,0,0,0,0,0,0,0,-1.4324,-1.4331,-1.4395,-1.4397,-1.44,-1.4444,-1.4428,-1.4479,-1.4464,-1.444,-1.4463,-1.4462,-1.4497,-1.4502,-1.4514,-1.4555,-1.4557,-1.4536,-1.4538,-1.4539,-1.454,0,0,0,0,0,0,0,-1.4321,-1.4328,-1.4404,-1.4396,-1.4399,-1.4403,-1.441,-1.4438,-1.447,-1.4442,-1.4443,-1.4451,-1.4498,-1.4511,-1.4516,-1.4558,-1.4536,-1.4538,-1.454,-1.4541,-1.4621,-1.4621,0,0,0,0,0,0,-1.4314,-1.4325,-1.4402,-1.4406,-1.4361,-1.4405,-1.4413,-1.443,-1.4469,-1.4475,-1.4451,-1.4451,-1.4507,-1.4512,-1.4518,-1.4549,-1.4539,-1.4541,-1.4543,-1.462,-1.4621,-1.4621,0,0,0,0,0,0,-1.4312,-1.4321,-1.4399,-1.4366,-1.4376,-1.4407,-1.4427,-1.4432,-1.4445,-1.4476,-1.4482,-1.4459,-1.4507,-1.4514,-1.4543,-1.4552,-1.4543,-1.4545,-1.462,-1.4621,-1.4621,-1.4612,0,0,0,0,0,0,-1.4309,-1.432,-1.4331,-1.4366,-1.4378,-1.4425,-1.4427,-1.4433,-1.445,-1.4451,-1.4485,-1.449,-1.4507,-1.4539,-1.4546,-1.4555,-1.4547,-1.4619,-1.462,-1.4621,-1.4611,-1.4612,-1.4612,0,0,0,0,0,-1.4305,-1.4325,-1.4331,-1.434,-1.4392,-1.4425,-1.4432,-1.4452,-1.4451,-1.4461,-1.4481,-1.4489,-1.4549,-1.4542,-1.455,-1.456,-1.4619,-1.462,-1.4621,-1.4611,-1.4612,-1.4612,0,0,0,0,0,0,-1.4289,-1.433,-1.4337,-1.4369,-1.4394,-1.4429,-1.4443,-1.4452,-1.4476,-1.4476,-1.4499,-1.4506,-1.4534,-1.455,-1.4541,-1.4585,-1.4584,-1.4587,-1.4574,-1.4575,-1.4576,-1.4571,-1.455,0,0,0,0,0,-1.4289,-1.4314,-1.4348,-1.4373,-1.4385,-1.4411,-1.4426,-1.444,-1.4465,-1.4475,-1.4498,-1.4521,-1.4545,-1.4561,-1.4585,-1.4613,-1.4621,-1.4624,-1.4625,-1.4625,-1.4627,-1.4643,-1.4644,-1.4625,-1.4625,-1.4625,0,0,-1.429,-1.4315,-1.4329,-1.437,-1.4391,-1.4414,-1.442,-1.4445,-1.4463,-1.4479,-1.4508,-1.4525,-1.4553,-1.4582,-1.4595,-1.4596,-1.4634,-1.4626,-1.4626,-1.4628,-1.4644,-1.4646,-1.4647,-1.4626,-1.4625,-1.4625,0,0,-1.4304,-1.4325,-1.4349,-1.4369,-1.44,-1.4417,-1.4422,-1.4456,-1.4468,-1.4498,-1.451,-1.4531,-1.4572,-1.4592,-1.4607,-1.4626,-1.4634,-1.4633,-1.4636,-1.4651,-1.4652,-1.4654,-1.4661,-1.4663,-1.4635,-1.4635,-1.4635,0,-1.43,-1.4338,-1.4359,-1.4384,-1.4401,-1.4417,-1.444,-1.4458,-1.4495,-1.4506,-1.4506,-1.4558,-1.4577,-1.4611,-1.4615,-1.4627,-1.4633,-1.463,-1.4651,-1.4652,-1.4654,-1.4661,-1.4663,-1.4635,-1.4635,-1.4635,-1.4635,0,-1.4332,-1.4358,-1.4373,-1.4409,-1.4427,-1.4451,-1.4474,-1.449,-1.4501,-1.4518,-1.4547,-1.4572,-1.4601,-1.4609,-1.462,-1.4644,-1.4643,-1.4646,-1.4646,-1.4655,-1.4662,-1.4665,-1.4634,-1.4634,-1.4634,-1.4634,0,0,-1.4339,-1.4386,-1.4391,-1.4407,-1.4442,-1.4461,-1.4484,-1.4514,-1.4527,-1.4551,-1.4571,-1.4605,-1.4608,-1.4625,-1.4638,-1.4651,-1.4664,-1.4653,-1.4654,-1.4654,-1.4691,-1.4689,-1.4692,-1.467,-1.467,-1.4671,-1.4689,0,-1.4358,-1.4402,-1.4421,-1.4456,-1.4479,-1.4494,-1.4514,-1.4537,-1.4553,-1.4574,-1.4591,-1.4615,-1.4617,-1.4628,-1.4641,-1.466,-1.4672,-1.4659,-1.4688,-1.4688,-1.4681,-1.4695,-1.4693,-1.471,-1.4692,-1.4692,-1.4693,0,-1.4386,-1.4411,-1.4448,-1.4479,-1.449,-1.4508,-1.4536,-1.4556,-1.4581,-1.4592,-1.461,-1.4622,-1.4646,-1.4643,-1.4676,-1.4666,-1.4679,-1.469,-1.4691,-1.4695,-1.4692,-1.47,-1.4716,-1.4718,-1.4697,-1.4697,-1.4696,0,-1.4387,-1.443,-1.4458,-1.4471,-1.4508,-1.452,-1.4536,-1.4561,-1.4577,-1.46,-1.4611,-1.4636,-1.465,-1.4669,-1.4687,-1.4684,-1.4718,-1.4717,-1.4727,-1.4727,-1.4735,-1.4734,-1.4753,-1.4742,-1.4742,-1.4741,-1.4741,0,-1.4407,-1.4429,-1.4459,-1.4476,-1.4501,-1.4522,-1.4545,-1.4562,-1.4584,-1.4604,-1.4617,-1.4635,-1.4658,-1.4678,-1.4692,-1.4717,-1.4723,-1.4731,-1.4735,-1.4731,-1.473,-1.474,-1.4739,-1.4742,-1.4742,-1.4742,-1.4742,0,-1.4413,-1.4434,-1.4466,-1.4498,-1.4506,-1.4523,-1.455,-1.4567,-1.4582,-1.4607,-1.4614,-1.4639,-1.4664,-1.4683,-1.4715,-1.4724,-1.4751,-1.4754,-1.4742,-1.4744,-1.4753,-1.4752,-1.478,-1.4785,-1.477,-1.477,-1.477,0,-1.4425,-1.4442,-1.4476,-1.4491,-1.4506,-1.453,-1.4546,-1.4566,-1.4582,-1.4611,-1.4624,-1.465,-1.4672,-1.471,-1.473,-1.4755,-1.4759,-1.4767,-1.4763,-1.4758,-1.476,-1.4759,-1.476,-1.4768,-1.4768,-1.4768,-1.4768,0,-1.4443,-1.4452,-1.4476,-1.4503,-1.4522,-1.4544,-1.4566,-1.4576,-1.46,-1.4617,-1.4643,-1.466,-1.4692,-1.4717,-1.4743,-1.4758,-1.4767,-1.4769,-1.4773,-1.4769,-1.4761,-1.4766,-1.4744,-1.4768,-1.4768,-1.4768,-1.4768,-1.4768,-1.4453,-1.4469,-1.4495,-1.452,-1.4539,-1.4559,-1.4576,-1.4594,-1.4616,-1.4645,-1.4654,-1.4681,-1.4704,-1.474,-1.4755,-1.4775,-1.4775,-1.4781,-1.4782,-1.4783,-1.4783,-1.4757,-1.478,-1.478,-1.478,-1.478,-1.478,0,-1.4472,-1.4489,-1.4512,-1.4543,-1.4562,-1.4569,-1.4593,-1.4609,-1.4632,-1.4653,-1.4674,-1.4703,-1.4727,-1.4749,-1.4773,-1.4785,-1.479,-1.4791,-1.4791,-1.4794,-1.4781,-1.4776,-1.4787,-1.4787,-1.4787,-1.4787,-1.4787,-1.4787,-1.4485,-1.4512,-1.4524,-1.456,-1.4577,-1.4604,-1.4617,-1.4635,-1.4652,-1.4684,-1.4704,-1.4718,-1.4739,-1.4765,-1.4787,-1.4793,-1.4801,-1.4802,-1.4808,-1.4796,-1.4795,-1.4794,-1.4789,-1.4803,-1.4803,-1.482,-1.482,-1.482]},{"header":{"parameterUnit":"m.s-1","parameterCategory":1,"la1":30.2991,"la2":30.254,"lo1":-89.0895,"lo2":-89.0444,"dy":0.0017,"dx":0.0017,"nx":28,"ny":28,"refTime":"2025-11-24T03:00:00:Z","depth":0,"parameterNumber":3,"parameterNumberName":"V-component_of_WINDS"},"data":[0,0,0,0,0,0,0,0,0,0,0,0,0,0,0,0,0,0,0,0,0,0,0,0,0,0,0,0,0,0,0,0,0,0,0,0,0,0,0,0,0,0,0,0,0,0,0,0,0,0,0,0,0,0,0,0,0,0,5.5954,5.5953,0,5.5911,5.591,5.591,5.584,5.5839,5.5838,5.5837,5.5788,5.5788,5.5788,0,0,0,0,0,0,0,0,0,0,0,0,0,5.5976,5.5976,5.5954,5.5953,5.5953,5.5911,5.591,5.5909,5.5841,5.5839,5.5838,5.5836,5.5788,5.5788,5.5788,0,0,0,0,0,0,0,0,0,0,0,0,0,5.5953,5.5976,5.5954,5.5914,5.5909,5.5911,5.591,5.5909,5.5841,5.5839,5.5837,5.5835,5.5788,5.5788,5.5788,5.5824,0,0,5.5787,5.5787,0,0,0,0,0,0,0,0,5.5954,5.5952,5.592,5.5916,5.5912,5.5879,5.59,5.5881,5.5841,5.5867,5.5837,5.5835,5.582,5.5817,5.5813,5.5822,5.582,5.5787,5.5787,5.5787,5.5787,0,0,0,0,0,0,0,5.5956,5.5953,5.5937,5.592,5.5915,5.5897,5.5892,5.5896,5.5854,5.5864,5.5859,5.5855,5.5817,5.5813,5.5811,5.5819,5.5787,5.5787,5.5787,5.5787,5.586,5.5862,0,0,0,0,0,0,5.5964,5.5955,5.5938,5.5935,5.5929,5.5898,5.5892,5.5891,5.5854,5.5847,5.5857,5.5852,5.5814,5.5811,5.5809,5.5851,5.5787,5.5787,5.5787,5.5858,5.586,5.5862,0,0,0,0,0,0,5.5964,5.5963,5.594,5.5944,5.594,5.59,5.5899,5.5892,5.5887,5.5848,5.584,5.5861,5.5813,5.5809,5.5822,5.5849,5.5787,5.5787,5.5855,5.5858,5.5861,5.5935,0,0,0,0,0,0,5.5965,5.5963,5.5977,5.5945,5.594,5.5954,5.5901,5.5892,5.5888,5.5881,5.585,5.5843,5.5811,5.5823,5.5822,5.5847,5.5787,5.5853,5.5857,5.586,5.593,5.594,5.5949,0,0,0,0,0,5.5966,5.5998,5.5978,5.5976,5.5956,5.5956,5.5953,5.5917,5.589,5.5903,5.5879,5.5844,5.5846,5.5825,5.5823,5.5849,5.5851,5.5855,5.586,5.5926,5.5938,5.5949,0,0,0,0,0,0,5.6031,5.5992,5.597,5.5992,5.5978,5.5944,5.5959,5.5931,5.5922,5.5916,5.5871,5.5865,5.5884,5.5867,5.5844,5.5884,5.5843,5.5848,5.5894,5.5905,5.5915,5.5918,5.5787,0,0,0,0,0,5.6049,5.6053,5.6018,5.6041,5.6035,5.5999,5.5997,5.5972,5.5954,5.5948,5.5924,5.5908,5.5905,5.5904,5.5899,5.5928,5.5921,5.5945,5.5954,5.5962,5.5967,5.5983,5.5994,5.5877,5.5877,5.5877,0,0,5.6083,5.6063,5.6067,5.6054,5.6039,5.6045,5.5994,5.6001,5.6004,5.5948,5.596,5.5942,5.5921,5.5943,5.5951,5.593,5.5998,5.5968,5.5975,5.5975,5.5989,5.6001,5.601,5.5881,5.588,5.5879,0,0,5.615,5.6134,5.6153,5.6141,5.6122,5.6098,5.6103,5.6074,5.6061,5.6073,5.6032,5.6035,5.6031,5.6019,5.6012,5.6079,5.6047,5.6079,5.6128,5.6145,5.6154,5.6162,5.6188,5.6198,5.6083,5.6084,5.6084,0,5.6195,5.6202,5.6166,5.6177,5.6173,5.6125,5.6144,5.6134,5.6113,5.6112,5.6088,5.6085,5.6067,5.6087,5.6104,5.6099,5.6104,5.6082,5.6156,5.6164,5.6171,5.6195,5.6205,5.6088,5.6087,5.6087,5.6086,0,5.626,5.6266,5.6284,5.6269,5.6266,5.6281,5.6247,5.6249,5.6225,5.6204,5.6218,5.6195,5.6187,5.619,5.6164,5.6207,5.6195,5.6165,5.6123,5.6187,5.6209,5.6218,5.6093,5.6092,5.6091,5.609,0,0,5.6364,5.6332,5.6339,5.6333,5.631,5.6313,5.6327,5.6321,5.6325,5.6313,5.6324,5.6324,5.6297,5.629,5.6263,5.6278,5.6336,5.6246,5.6245,5.6265,5.6384,5.6408,5.6419,5.6315,5.6316,5.6317,5.6387,0,5.6427,5.645,5.6419,5.6449,5.6455,5.6412,5.6424,5.6411,5.6393,5.6395,5.6374,5.6376,5.6339,5.6335,5.6348,5.6326,5.6359,5.632,5.6325,5.6326,5.6333,5.643,5.6454,5.6521,5.6395,5.6396,5.6397,0,5.6502,5.6498,5.6529,5.6508,5.651,5.6521,5.6515,5.6518,5.6503,5.6489,5.6484,5.6453,5.6466,5.6426,5.6444,5.6418,5.6418,5.6408,5.641,5.6409,5.6366,5.6434,5.654,5.6551,5.641,5.6409,5.6408,0,5.6578,5.6579,5.6599,5.6595,5.657,5.658,5.657,5.6554,5.6553,5.6548,5.6547,5.6542,5.654,5.6537,5.6507,5.6481,5.6529,5.6486,5.6518,5.652,5.653,5.653,5.664,5.6529,5.6529,5.6529,5.6529,0,5.6652,5.6673,5.6633,5.6645,5.6669,5.6634,5.6657,5.6642,5.663,5.6638,5.66,5.6609,5.6567,5.6572,5.6548,5.6568,5.6567,5.6556,5.655,5.656,5.6562,5.656,5.6555,5.6532,5.6531,5.653,5.653,0,5.6739,5.6713,5.6733,5.6709,5.6704,5.6722,5.6702,5.6712,5.6693,5.6705,5.6705,5.6675,5.6679,5.6649,5.6646,5.663,5.6662,5.6646,5.6667,5.6663,5.6698,5.6696,5.6811,5.6825,5.6704,5.6705,5.6706,0,5.6788,5.6804,5.6784,5.6788,5.6781,5.6788,5.6788,5.6755,5.6757,5.6745,5.6757,5.6759,5.6758,5.6767,5.6744,5.6743,5.6728,5.6769,5.6727,5.6739,5.6731,5.6731,5.6733,5.6777,5.6779,5.678,5.6781,0,5.6879,5.6867,5.687,5.687,5.6872,5.687,5.6864,5.687,5.6834,5.6839,5.6844,5.6844,5.6844,5.6846,5.6841,5.683,5.6801,5.6795,5.6802,5.6814,5.6826,5.6822,5.6692,5.6792,5.6791,5.679,5.6789,5.6789,5.695,5.6963,5.6952,5.6958,5.6952,5.6949,5.6959,5.6942,5.6946,5.6945,5.6925,5.6935,5.6923,5.6914,5.6906,5.6913,5.6894,5.6904,5.6907,5.6911,5.6918,5.6825,5.6912,5.6912,5.6911,5.6911,5.6911,0,5.704,5.7032,5.7038,5.7034,5.7039,5.7012,5.7006,5.7012,5.7022,5.7014,5.7016,5.7023,5.7026,5.7006,5.7006,5.7016,5.7003,5.7018,5.7017,5.7015,5.6934,5.6929,5.7029,5.7029,5.7029,5.7029,5.7029,5.7029,5.7088,5.711,5.7097,5.7117,5.7108,5.7119,5.7118,5.7116,5.711,5.7121,5.7124,5.7112,5.7099,5.7099,5.7102,5.7095,5.7098,5.7118,5.7107,5.7032,5.7021,5.701,5.7004,5.7119,5.7119,5.7188,5.7189,5.7189]}]]